Location: Burtsch�tz
(51.0528°N, 12.1764°E)
Time: 01:48:48
(UTC+00:00)

SKYMED 2 - Pass Details

Date: 29 October 2020
Orbit: 621 x 623 km, 97.9° (Epoch: 23 November)

Event Time Altitude Azimuth Distance (km) Brightness Sun altitude
Rises 17:48:08 0° 11° (N) 2,917 6.9 -19.0°
Reaches altitude 10° 17:50:21 10° 8° (N) 2,005 6.1 -19.3°
Maximum altitude 17:54:39 61° 289° (WNW) 710 4.1 -20.0°
Drops below altitude 10° 17:58:55 10° 209° (SSW) 1,989 6.5 -20.7°
Sets 18:01:07 0° 206° (SSW) 2,890 7.3 -21.0°
